Skip Page Navigation
NASA JPL Caltech
NASA Logo - Jet Propulsion Laboratory + View the NASA Portal
+ Center for Near-Earth Object Studies
JPL Home Earth Solar System Stars & Galaxies Technology
JPL Solar System Dynamics
BODIES ORBITS EPHEMERIDES TOOLS PHYSICAL DATA DISCOVERY FAQ SITE MAP
JPL Small-Body Database Browser
Search: [ help ]  
213368 (2001 TV179)
Classification: Main-belt Asteroid          SPK-ID: 2213368
Ephemeris | Orbit Diagram | Orbital Elements | Mission Design | Physical Parameters | Discovery Circumstances | Close-Approach Data ]

[ hide orbit diagram ]

For accurate long-term ephemerides, please instead use our Horizons system.This orbit viewer was implemented using two-body methods, and hence should not be used for determining accurate long-term trajectories (over several years or decades) or planetary encounter circumstances.


Orbital Elements at Epoch 2459396.5 (2021-Jul-01.0) TDB
Reference: JPL 17 (heliocentric ecliptic J2000)
 Element Value Uncertainty (1-sigma)   Units 
e .2427567897289742 4.6752e-08  
a 2.696884058121539 2.2728e-08 au
q 2.042197141900706 1.2265e-07 au
i 11.27737152994289 6.2884e-06 deg
node 219.917580619323 2.5815e-05 deg
peri 70.09382933735661 3.0694e-05 deg
M 231.6623261136536 2.2969e-05 deg
tp 2459973.191438118579
(2023-Jan-28.69143812)
0.00010914 TDB
period 1617.677112540963
4.43
2.0449e-05
5.599e-08
d
yr
n .2225413200255586 2.8132e-09 deg/d
Q 3.351570974342371 2.8245e-08 au
  Orbit Determination Parameters
   # obs. used (total)      298  
   data-arc span      7568 days (20.72 yr)  
   first obs. used      2000-04-26  
   last obs. used      2021-01-14  
   planetary ephem.      DE441  
   SB-pert. ephem.      SB441-N16  
   condition code      0  
   norm. resid. RMS      .58786  
   source      ORB  
   producer      Otto Matic  
   solution date      2021-Apr-13 23:42:25  

Additional Information
 Earth MOID = 1.05853 au 
 Jupiter MOID = 1.93537 au 
 T_jup = 3.299 
[ show covariance matrix ]

Ephemeris | Orbit Diagram | Orbital Elements | Mission Design | Physical Parameters | Discovery Circumstances | Close-Approach Data ]

Physical Parameter Table
Parameter Symbol Value Units Sigma Reference Notes
absolute magnitude H 16.25   n/a MPCxxxxx  

213368 (2001 TV179)          Discovered 2001-Oct-14 by LINEAR at Socorro
Reference: 20090509/Numbers.arcLast Updated: 2009-05-11

[ hide close-approach data ]
Close-Approach Data   ...sorted by Date/Time (TDB)
Date/Time (TDB) Time Uncertainty
(days_HH:MM)
Body Nominal Distance (au) Minimum Distance (au) Maximum Distance (au) V-relative (km/s) V-infinity (km/s) JD (TDB) Time Uncertainty (minutes) Semi-major axis (km) Semi-minor axis (km) range-LOV angle (deg) N-sigma BP Orbit Ref. Reference Modified
1918-Sep-25 19:01 00:04 Jupiter 1.93635253440181 1.93635153425147 1.93635353456393 2.53594511857426 2.35714948545603 2421862.292571017 3.67358852695024 327.248409618511 65.0508617009768 76.3196938823719 1040225.74945867 T 17 CATAB v2.0f-lin.ifort 2021-Apr-13 23:42:26 2021-Apr-13 23:42
1953-Dec-31 20:32 00:02 Jupiter 1.91692462508893 1.91692411032912 1.91692513984863 2.89013531393199 2.73297484340115 2434743.355394564 2.24373916314788 293.575154311649 27.3125407670349 87.1518679630063 1369115.81738913 T 17 CATAB v2.0f-lin.ifort 2021-Apr-13 23:42:26 2021-Apr-13 23:42
1989-Apr-08 09:58 < 00:01 Jupiter 1.93230426132949 1.93230364178248 1.93230488087783 3.24916095403766 3.11132609578838 2447624.915519266 0.96982651962076 174.34913242127 19.3382936121727 -85.462571851328 1639097.6755415 T 17 CATAB v2.0f-lin.ifort 2021-Apr-13 23:42:26 2021-Apr-13 23:42
2024-Jul-14 02:43 < 00:01 Jupiter 1.9898885283794 1.98988798996851 1.9898890667903 3.62940502438104 3.51016441744935 2460505.613301512 0.338333937806277 90.5829475277552 21.7525171271216 -84.2920086072164 2316797.75163121 T 17 CATAB v2.0f-lin.ifort 2021-Apr-13 23:42:26 2021-Apr-13 23:42
2179-Dec-09 11:03 00:06 Jupiter 1.97155599243896 1.97155444942251 1.9715575354599 2.05810131285902 1.83753594534988 2517265.960259332 5.78281742220761 271.402196919131 222.305234543583 -7.68814837000263 455447.673633507 T 17 CATAB v2.0f-lin.ifort 2021-Apr-13 23:42:26 2021-Apr-13 23:42

Alternate Designations
 2001 TV179 = 2005 NA1 
Ephemeris | Orbit Diagram | Orbital Elements | Mission Design | Physical Parameters | Discovery Circumstances | Close-Approach Data ]
ABOUT SSD CREDITS/AWARDS PRIVACY/COPYRIGHT GLOSSARY LINKS
FirstGov 2021-Jul-25 20:21 UT
(server date/time)  
NASA Home Page
Site Manager:   Ryan S. Park
Webmaster  Alan B. Chamberlin